Wetbulb
71.74 70.64 70.59 70.71 70.25 70.50 70.32 70.75 72.13 71.72 71.47 71.65 71.74 71.71 70.90 68.49 67.39 64.95 64.04 65.94 67.12 68.47
66.57 66.91 66.38 68.03 69.05 68.95 70.17 69.79 70.30 70.60 70.74 70.93 71.24 71.78 71.91 71.41 69.49 68.58 65.98 67.32 69.63 69.82
64.80 65.29 65.80 66.02 66.07 66.55 66.46 66.14 66.39 66.69 67.70 67.95 68.56 69.20 70.22 69.75 70.20 68.90 69.82 69.93 69.80 69.53
62.25 62.77 63.29 63.59 63.93 63.93 64.24 63.77 63.81 64.87 65.74 65.36 66.03 67.34 68.12 68.02 67.58 67.34 67.76 68.18 67.39 66.94
61.60 61.67 61.85 61.88 62.25 62.49 62.17 62.55 62.73 62.99 63.14 63.55 64.43 66.40 66.03 65.08 65.13 65.24 65.00 64.60 65.95 65.34
59.04 60.41 61.63 61.70 61.80 61.63 61.56 61.56 61.70 62.02 62.81 63.22 63.54 64.37 65.10 64.58 64.23 64.62 64.64 64.45 64.55 65.32
58.24 58.60 59.54 60.60 60.47 60.26 60.47 60.46 61.05 61.76 61.85 62.68 63.20 63.08 63.33 63.55 63.81 64.03 63.56 64.66 65.59 64.87
59.23 59.44 58.59 58.61 59.34 59.78 60.57 61.09 61.47 61.80 62.45 63.11 63.17 62.80 63.78 63.95 63.92 63.74 63.77 64.40 64.53 64.49
56.06 57.50 57.99 58.26 58.78 59.98 60.67 61.31 61.59 61.90 62.08 62.23 60.50 51.66 52.80 56.98 60.75 60.61 61.66 62.80 63.86 64.10
54.15 54.88 56.13 57.10 57.59 58.97 60.31 61.39 60.99 60.80 60.08 59.96 59.92 49.96 49.35 50.08 59.31 59.67 60.23 61.12 62.38 62.59
51.89 52.42 55.37 56.01 56.87 58.65 59.77 59.27 58.87 58.43 58.57 58.62 58.28 48.36 46.83 47.66 58.09 58.33 58.98 60.02 61.68 62.90
51.07 51.38 52.97 54.74 56.44 57.89 57.57 57.60 57.53 57.52 57.65 57.45 57.77 46.26 45.12 49.55 56.70 56.26 57.22 58.57 60.71 62.60
51.34 51.60 51.98 53.50 54.72 56.54 56.72 56.54 56.29 56.31 56.97 53.78 57.01 46.36 44.13 49.44 54.92 55.30 55.94 58.27 60.71 52.11
50.68 51.09 52.37 54.29 55.12 55.40 54.71 55.30 55.83 55.30 56.23 56.54 55.79 55.85 43.71 43.68 55.02 54.81 55.18 56.09 58.78 60.68
MSLP
1002.50 1002.99 1003.35 1003.88 1004.23 1004.65 1004.81 1005.24 1005.99 1006.53 1006.93 1007.20 1007.75 1008.11 1008.34 1008.99 1009.71 1010.51 1010.81 1011.47 1011.97 1011.31
1002.17 1002.67 1003.07 1003.72 1004.20 1004.49 1005.01 1005.34 1005.88 1006.29 1006.69 1007.02 1007.26 1007.52 1008.04 1008.73 1009.33 1009.96 1010.86 1010.91 1010.84 1010.70
1001.93 1002.59 1003.01 1003.68 1004.07 1004.51 1005.00 1005.48 1005.89 1006.18 1006.41 1006.75 1007.05 1007.36 1007.85 1008.21 1008.65 1009.22 1009.66 1009.74 1009.95 1009.95
1001.77 1002.38 1003.06 1003.35 1003.90 1004.38 1004.95 1005.38 1005.73 1005.96 1006.27 1006.59 1006.98 1007.35 1007.72 1007.98 1008.29 1008.56 1008.86 1009.08 1009.12 1009.10
1001.84 1002.03 1002.62 1003.05 1003.67 1004.23 1004.64 1005.19 1005.48 1005.86 1006.08 1006.35 1006.67 1007.09 1007.27 1007.41 1007.61 1007.84 1008.07 1008.16 1008.38 1008.31
1001.98 1002.03 1002.18 1002.68 1003.37 1003.95 1004.36 1004.90 1005.30 1005.59 1005.79 1006.03 1006.31 1006.64 1006.89 1006.98 1007.08 1007.27 1007.50 1007.67 1007.83 1007.96
1001.67 1001.82 1002.20 1002.57 1003.11 1003.55 1004.04 1004.55 1004.87 1005.10 1005.27 1005.57 1005.87 1006.14 1006.41 1006.66 1006.89 1007.10 1007.23 1007.45 1007.66 1007.68
1000.98 1001.25 1001.82 1002.40 1002.48 1002.92 1003.50 1003.97 1004.42 1004.70 1004.89 1005.22 1005.54 1005.75 1006.11 1006.43 1006.66 1006.88 1007.10 1007.35 1007.41 1007.34
1000.76 1000.87 1001.23 1001.75 1002.19 1002.35 1002.85 1003.40 1003.90 1004.30 1004.45 1004.81 1005.00 1005.77 1006.22 1006.52 1006.54 1006.77 1006.91 1006.86 1006.77 1006.73
1000.78 1000.69 1000.93 1001.27 1001.68 1002.07 1002.35 1002.88 1003.50 1003.95 1004.28 1004.62 1005.01 1005.63 1006.00 1006.39 1006.32 1006.46 1006.52 1006.51 1006.37 1006.16
1000.64 1000.82 1000.65 1000.99 1001.11 1001.61 1002.09 1002.28 1002.99 1003.65 1004.04 1004.47 1004.81 1005.38 1005.66 1006.01 1006.05 1006.01 1006.14 1006.20 1006.12 1005.91
1000.61 1000.65 1000.42 1000.63 1000.92 1001.30 1001.69 1002.07 1002.40 1003.00 1003.57 1004.05 1004.48 1005.04 1005.31 1005.60 1005.31 1005.37 1005.63 1005.68 1005.53 1005.35
999.54 999.58 999.44 1000.07 1000.67 1000.85 1001.15 1001.55 1001.86 1002.36 1002.87 1003.32 1003.83 1004.50 1004.87 1005.04 1004.85 1005.05 1005.18 1005.07 1004.90 1004.80
998.50 998.72 998.94 999.39 999.90 1000.35 1000.43 1000.90 1001.32 1001.70 1002.27 1002.80 1003.17 1003.59 1004.23 1004.62 1004.72 1004.65 1004.60 1004.41 1004.07 1003.74
Wind_Speed
16 11 10 11 8 8 8 8 6 7 9 9 10 10 10 9 9 7 5 18 16 10
12 12 11 10 9 7 7 6 7 7 9 9 9 10 10 9 12 14 17 19 11 9
12 11 11 10 10 9 6 5 6 7 7 8 8 8 10 8 9 8 7 8 8 7
12 12 11 11 10 9 8 7 7 7 7 7 7 8 8 8 9 9 7 6 6 6
12 13 12 11 10 10 9 8 8 8 7 7 7 8 8 8 7 6 5 4 4 5
8 10 12 12 11 11 10 9 9 9 9 8 7 7 6 5 4 3 3 3 4 5
10 10 10 10 11 10 10 9 10 11 10 9 8 7 6 5 4 4 4 4 5 6
10 10 10 10 12 11 11 10 11 11 10 9 7 6 6 5 4 4 5 6 7 7
6 9 10 12 12 12 13 12 12 12 12 11 7 10 7 4 3 4 5 7 9 9
5 7 9 11 13 13 14 13 12 11 10 9 7 9 7 6 3 4 7 9 10 10
9 7 7 10 12 13 12 13 12 10 9 8 7 9 8 6 5 5 8 10 12 13
12 11 9 10 11 11 11 11 11 11 11 10 9 10 10 7 5 6 10 11 13 13
15 15 13 13 12 10 10 10 9 10 10 10 10 11 11 7 5 8 8 11 13 11
18 17 15 12 12 11 12 11 12 12 11 11 11 10 11 10 7 7 8 10 10 11
Wind_Direction
197 195 196 198 198 206 216 219 202 186 190 201 207 205 194 191 198 189 240 258 254 245
173 172 171 174 182 184 194 201 195 188 191 200 203 188 181 194 193 193 219 227 233 241
168 169 161 163 172 176 173 178 172 177 185 186 191 184 186 187 194 201 211 212 218 231
171 168 165 165 167 169 167 175 185 184 180 185 187 179 178 179 178 191 194 205 221 238
179 168 169 171 170 170 175 181 182 184 188 187 184 179 183 178 171 180 192 209 231 268
195 192 185 174 171 175 176 187 186 186 188 191 188 185 189 197 187 200 239 278 277 284
201 200 201 182 176 179 184 197 200 198 195 193 189 193 196 201 216 230 258 280 281 286
213 206 200 208 189 185 188 194 202 196 192 185 184 190 186 195 215 241 264 256 257 267
242 226 211 205 206 187 183 181 182 193 181 174 186 144 170 192 224 268 279 284 282 284
292 232 218 212 204 197 184 173 184 187 184 183 185 171 183 186 263 286 291 288 285 283
275 260 220 204 196 190 188 176 178 186 189 196 208 194 206 194 255 270 280 277 274 272
243 240 227 223 200 193 188 186 183 189 197 208 226 205 214 217 265 290 278 272 268 264
241 238 226 221 221 206 201 204 202 212 218 215 227 195 206 214 273 274 275 272 269 245
236 236 233 225 213 212 207 222 219 224 229 227 219 222 197 198 243 260 267 265 260 263